GW7269 Weather Reports


time (UTC)temp
C
wind
direction
speed
KPH
gust
KPH
rain 1hr
cm
rain 24hr
cm
rain mn
cm
humidity
%
barometer
mb
20260506043512 8 300 9.7 16.1 0.00 0.00 0.00 72 1017.6
20260506043027 8 284 11.3 17.7 0.00 0.00 0.00 72 1017.6
20260506042515 8 288 9.7 16.1 0.00 0.00 0.00 72 1017.4
20260506042009 8 296 11.3 16.1 0.00 0.00 0.00 71 1017.4
20260506041528 8 308 9.7 16.1 0.00 0.00 0.00 71 1017.2
20260506041011 8 278 8.0 19.3 0.00 0.00 0.00 71 1017.1
20260506040515 8 282 11.3 19.3 0.00 0.00 0.00 71 1017.0
20260506040029 8 287 9.7 22.5 0.00 0.00 0.00 71 1016.7
20260506035514 9 280 9.7 22.5 0.00 0.00 0.00 71 1016.6
20260506035011 9 309 11.3 17.7 0.00 0.00 0.00 70 1016.5
20260506034528 9 289 11.3 17.7 0.00 0.00 0.00 70 1016.3
20260506034011 9 285 6.4 12.9 0.00 0.00 0.00 70 1016.4
20260506033509 9 281 8.0 16.1 0.00 0.00 0.00 71 1016.3
20260506033033 10 292 8.0 16.1 0.00 0.00 0.00 70 1016.3
20260506032512 10 274 6.4 14.5 0.00 0.00 0.00 68 1016.2
20260506032011 10 290 6.4 14.5 0.00 0.00 0.00 68 1016.3
20260506031532 10 304 4.8 11.3 0.00 0.00 0.00 68 1016.3
20260506031009 10 282 6.4 14.5 0.00 0.00 0.00 68 1016.4
20260506030511 10 296 6.4 14.5 0.00 0.00 0.00 66 1016.2
20260506030050 11 290 8.0 12.9 0.00 0.00 0.00 65 1016.1
20260506025511 11 296 4.8 11.3 0.00 0.00 0.00 65 1016.0
20260506025012 11 286 4.8 9.7 0.00 0.00 0.00 66 1016.1
20260506024531 11 280 6.4 14.5 0.00 0.00 0.00 66 1016.0
20260506024011 11 290 4.8 12.9 0.00 0.00 0.00 65 1016.0
20260506023513 11 280 4.8 11.3 0.00 0.00 0.00 65 1015.9
20260506023027 11 304 3.2 8.0 0.00 0.00 0.00 64 1015.9
20260506022510 11 261 3.2 11.3 0.00 0.00 0.00 63 1015.9
20260506022010 11 281 3.2 8.0 0.00 0.00 0.00 63 1015.9
20260506021528 11 302 4.8 8.0 0.00 0.00 0.00 61 1015.9
20260506021012 11 293 3.2 11.3 0.00 0.00 0.00 62 1016.0
20260506020515 12 293 4.8 8.0 0.00 0.00 0.00 62 1015.9
20260506020028 12 291 4.8 11.3 0.00 0.00 0.00 61 1015.8
20260506015517 12 279 4.8 11.3 0.00 0.00 0.00 60 1015.8
20260506015010 12 295 4.8 11.3 0.00 0.00 0.00 61 1015.7
20260506014528 12 271 4.8 9.7 0.00 0.00 0.00 59 1015.8
20260506014008 12 281 4.8 9.7 0.00 0.00 0.00 59 1015.6
20260506013511 12 290 3.2 12.9 0.00 0.00 0.00 57 1015.6
20260506013031 12 279 4.8 12.9 0.00 0.00 0.00 55 1015.3
20260506012509 13 267 4.8 12.9 0.00 0.00 0.00 55 1015.2
20260506012013 13 305 6.4 12.9 0.00 0.00 0.00 54 1015.2
20260506011536 13 297 6.4 17.7 0.00 0.00 0.00 55 1015.2
20260506011015 13 292 6.4 12.9 0.00 0.00 0.00 54 1015.3
20260506010511 13 283 4.8 9.7 0.00 0.00 0.00 57 1015.4
20260506010030 13 268 1.6 6.4 0.00 0.00 0.00 55 1015.4
20260506005513 13 279 3.2 12.9 0.00 0.00 0.00 55 1015.4
20260506005011 13 296 4.8 12.9 0.00 0.00 0.00 56 1015.5
20260506004543 14 294 4.8 9.7 0.00 0.00 0.00 55 1015.3
20260506004012 13 298 6.4 11.3 0.00 0.00 0.00 53 1015.4
20260506003511 14 284 3.2 8.0 0.00 0.00 0.00 55 1015.5
20260506003033 14 302 4.8 9.7 0.00 0.00 0.00 57 1015.5
20260506002511 14 288 4.8 9.7 0.00 0.00 0.00 58 1015.4
20260506002017 14 304 4.8 9.7 0.00 0.00 0.00 56 1015.4
20260506001531 14 282 3.2 11.3 0.00 0.00 0.00 55 1015.4
20260506001010 15 286 1.6 9.7 0.00 0.00 0.00 56 1015.5
20260506000513 15 287 4.8 14.5 0.00 0.00 0.00 54 1015.5
20260506000030 14 297 6.4 14.5 0.00 0.00 0.00 56 1015.4
20260505235510 14 282 8.0 12.9 0.00 0.00 0.00 58 1015.3
20260505235013 14 311 8.0 12.9 0.00 0.00 0.00 59 1015.3
20260505234533 15 286 8.0 14.5 0.00 0.00 0.00 57 1015.3
20260505234013 15 304 8.0 17.7 0.00 0.00 0.00 57 1015.3
20260505233516 15 285 9.7 17.7 0.00 0.00 0.00 57 1015.2
20260505233029 14 289 6.4 14.5 0.00 0.00 0.00 59 1015.3
20260505232509 14 275 1.6 9.7 0.00 0.00 0.00 62 1015.3
20260505232009 14 269 1.6 6.4 0.00 0.00 0.00 62 1015.4
20260505231529 14 246 1.6 11.3 0.00 0.00 0.00 64 1015.4
20260505231013 13 271 0.0 8.0 0.00 0.00 0.00 65 1015.4
20260505230510 13 263 1.6 11.3 0.00 0.00 0.00 66 1015.3
20260505230039 13 251 1.6 11.3 0.00 0.00 0.00 65 1015.0
20260505225511 13 282 1.6 6.4 0.00 0.00 0.00 65 1015.0
20260505225015 13 243 1.6 11.3 0.00 0.00 0.00 64 1015.0
20260505224533 13 258 1.6 11.3 0.00 0.00 0.00 63 1015.0
20260505224012 14 259 3.2 6.4 0.00 0.00 0.00 63 1014.9
20260505223512 14 239 0.0 4.8 0.00 0.00 0.00 62 1015.4
20260505223027 14 259 0.0 6.4 0.00 0.00 0.00 62 1015.4
20260505222516 14 257 0.0 6.4 0.00 0.00 0.00 62 1015.7
20260505222012 14 259 1.6 6.4 0.00 0.00 0.00 63 1015.2
20260505221530 14 260 1.6 11.3 0.00 0.00 0.00 63 1015.2
20260505221011 14 249 1.6 6.4 0.00 0.00 0.00 64 1015.2
20260505220512 14 237 1.6 6.4 0.00 0.00 0.00 63 1015.0
20260505220032 14 242 1.6 14.5 0.00 0.00 0.00 63 1014.8
20260505215513 14 223 1.6 6.4 0.00 0.00 0.00 63 1014.7
20260505215012 15 243 1.6 6.4 0.00 0.00 0.00 61 1014.9
20260505214534 15 211 0.0 6.4 0.00 0.00 0.00 61 1015.0
20260505214013 15 223 0.0 4.8 0.00 0.00 0.00 62 1015.0
20260505213517 15 230 0.0 4.8 0.00 0.00 0.00 61 1015.0
20260505213033 15 244 0.0 4.8 0.00 0.00 0.00 60 1015.1
20260505212513 15 230 0.0 4.8 0.00 0.00 0.00 58 1015.1
20260505212012 15 249 0.0 4.8 0.00 0.00 0.00 59 1014.9
20260505211528 15 260 1.6 6.4 0.00 0.00 0.00 59 1014.9
20260505211014 15 257 1.6 6.4 0.00 0.00 0.00 61 1014.9
20260505210515 15 290 0.0 6.4 0.00 0.00 0.00 62 1014.9
20260505210029 15 248 0.0 6.4 0.00 0.00 0.00 62 1014.7
20260505205511 15 234 0.0 1.6 0.00 0.00 0.00 60 1014.6
20260505205009 15 259 0.0 1.6 0.00 0.00 0.00 61 1014.6
20260505204533 15 263 0.0 4.8 0.00 0.00 0.00 61 1014.5
20260505204013 15 251 0.0 4.8 0.00 0.00 0.00 61 1014.5
20260505203510 15 274 0.0 4.8 0.00 0.00 0.00 59 1014.5
20260505203034 16 262 0.0 4.8 0.00 0.00 0.00 59 1014.5
20260505202514 16 277 0.0 6.4 0.00 0.00 0.00 55 1014.4
20260505202012 16 290 1.6 6.4 0.00 0.00 0.00 55 1014.3
20260505201534 16 296 3.2 6.4 0.00 0.00 0.00 55 1014.2
20260505201013 16 279 3.2 6.4 0.00 0.00 0.00 55 1014.2
20260505200511 16 305 1.6 4.8 0.00 0.00 0.00 55 1014.1
20260505200032 16 302 0.0 4.8 0.00 0.00 0.00 55 1014.1
20260505195516 16 281 0.0 4.8 0.00 0.00 0.00 56 1014.1
20260505195012 16 283 0.0 1.6 0.00 0.00 0.00 56 1014.1
20260505194533 16 290 0.0 1.6 0.00 0.00 0.00 57 1014.1
20260505194012 15 263 0.0 1.6 0.00 0.00 0.00 60 1014.1
20260505193511 16 273 0.0 1.6 0.00 0.00 0.00 58 1014.2
20260505193052 15 250 0.0 9.7 0.00 0.00 0.00 59 1014.1
20260505192511 15 275 0.0 9.7 0.00 0.00 0.00 59 1014.1
20260505192011 15 300 0.0 1.6 0.00 0.00 0.00 59 1014.2
20260505191529 15 265 0.0 1.6 0.00 0.00 0.00 59 1014.2
20260505191013 15 270 0.0 1.6 0.00 0.00 0.00 60 1014.2
20260505190515 15 268 0.0 1.6 0.00 0.00 0.00 63 1014.1
20260505190039 15 272 0.0 1.6 0.00 0.00 0.00 64 1014.1
20260505185516 15 294 0.0 3.2 0.00 0.00 0.00 65 1014.1
20260505185015 14 259 0.0 3.2 0.00 0.00 0.00 66 1013.9
20260505184531 13 271 0.0 0.0 0.00 0.00 0.00 66 1013.9
20260505184013 13 291 0.0 0.0 0.00 0.00 0.00 68 1014.0
20260505183510 13 282 0.0 0.0 0.00 0.00 0.00 68 1014.0
20260505183030 13 275 0.0 0.0 0.00 0.00 0.00 67 1013.8
20260505182510 13 299 0.0 0.0 0.00 0.00 0.00 67 1013.9
20260505182013 14 290 0.0 0.0 0.00 0.00 0.00 66 1013.9
20260505181532 15 292 0.0 0.0 0.00 0.00 0.00 64 1014.0
20260505181012 15 289 0.0 0.0 0.00 0.00 0.00 62 1013.8
20260505180513 16 259 0.0 0.0 0.00 0.00 0.00 59 1013.7
20260505180037 16 266 0.0 0.0 0.00 0.00 0.00 60 1013.7
20260505175514 16 254 0.0 3.2 0.00 0.00 0.00 59 1013.7
20260505175013 16 135 0.0 4.8 0.00 0.00 0.00 59 1013.6
20260505174529 16 81 1.6 4.8 0.00 0.00 0.00 59 1013.4
20260505174013 15 68 0.0 3.2 0.00 0.00 0.00 63 1013.4
20260505173515 14 22 0.0 1.6 0.00 0.00 0.00 64 1013.3
20260505173032 14 301 0.0 0.0 0.00 0.00 0.00 66 1013.3
20260505172511 13 302 0.0 0.0 0.00 0.00 0.00 68 1013.2
20260505172011 13 304 0.0 1.6 0.00 0.00 0.00 68 1013.3
20260505171532 13 317 0.0 1.6 0.00 0.00 0.00 68 1013.3
20260505171013 13 289 0.0 4.8 0.00 0.00 0.00 69 1013.3
20260505170514 13 294 0.0 4.8 0.00 0.00 0.00 69 1013.2
20260505170034 13 306 1.6 3.2 0.00 0.00 0.00 69 1013.2
20260505165512 13 284 0.0 1.6 0.00 0.00 0.00 70 1013.2
20260505165012 13 291 0.0 0.0 0.00 0.00 0.00 68 1013.3
20260505164536 14 282 0.0 1.6 0.00 0.00 0.00 66 1013.1
20260505164014 15 299 0.0 1.6 0.00 0.00 0.00 63 1013.0
20260505163512 16 177 0.0 1.6 0.00 0.00 0.00 62 1012.9
20260505163039 16 142 0.0 4.8 0.00 0.00 0.00 58 1012.9
20260505162512 15 151 0.0 4.8 0.00 0.00 0.00 59 1012.8
20260505162014 15 55 0.0 1.6 0.00 0.00 0.00 59 1012.9
20260505161532 15 308 0.0 0.0 0.00 0.00 0.00 64 1012.8
20260505161011 15 326 0.0 0.0 0.00 0.00 0.00 63 1012.7
20260505160512 15 55 0.0 0.0 0.00 0.00 0.00 63 1012.6
20260505153043 13 70 0.0 4.8 0.00 0.00 0.00 70 1012.3
20260505152512 13 67 0.0 4.8 0.00 0.00 0.00 71 1012.3
20260505152020 13 55 0.0 1.6 0.00 0.00 0.00 75 1012.2
20260505151534 12 67 0.0 0.0 0.00 0.00 0.00 76 1012.1
20260505151013 12 67 0.0 0.0 0.00 0.00 0.00 78 1012.3
20260505150515 11 83 0.0 0.0 0.00 0.00 0.00 81 1012.3
20260505140515 10 128 0.0 4.8 0.00 0.00 0.00 79 1011.8
20260505125014 10 135 0.0 1.6 0.00 0.00 0.00 81 1011.0
20260505124540 10 117 0.0 3.2 0.00 0.00 0.00 81 1010.9
20260505124013 9 107 1.6 3.2 0.00 0.00 0.00 82 1010.9
20260505123513 9 126 0.0 1.6 0.00 0.00 0.00 82 1011.0
20260505123048 9 121 0.0 1.6 0.00 0.00 0.00 83 1011.0
20260505122514 9 92 0.0 0.0 0.00 0.00 0.00 83 1011.0
20260505122014 9 91 0.0 0.0 0.00 0.00 0.00 83 1011.1
20260505121540 9 95 0.0 1.6 0.00 0.00 0.00 83 1011.0
20260505121016 9 95 0.0 1.6 0.00 0.00 0.00 83 1011.1
20260505120516 9 97 0.0 1.6 0.00 0.00 0.00 83 1011.0
20260505120052 9 76 0.0 4.8 0.00 0.00 0.00 83 1011.1
20260505115512 9 71 0.0 4.8 0.00 0.00 0.00 83 1011.1
20260505115016 9 68 0.0 1.6 0.00 0.00 0.00 82 1011.1
20260505114552 10 68 0.0 1.6 0.00 0.00 0.00 81 1011.0
20260505114016 10 68 0.0 0.0 0.00 0.00 0.00 80 1011.1
20260505113513 10 67 0.0 0.0 0.00 0.00 0.00 78 1011.0
20260505113051 11 65 0.0 0.0 0.00 0.00 0.00 76 1011.0
20260505112518 11 352 0.0 0.0 0.00 0.00 0.00 74 1011.1
20260505112015 11 352 0.0 0.0 0.00 0.00 0.00 74 1010.9
20260505111546 11 310 0.0 0.0 0.00 0.00 0.00 74 1010.9
20260505111015 11 310 0.0 0.0 0.00 0.00 0.00 73 1011.0
20260505110518 11 310 0.0 3.2 0.00 0.00 0.00 73 1011.0
20260505102016 12 301 0.0 0.0 0.00 0.00 0.00 71 1010.9
20260505101544 12 301 0.0 0.0 0.00 0.00 0.00 71 1011.0
20260505101015 12 301 0.0 0.0 0.00 0.00 0.00 71 1011.0
20260505100516 12 301 0.0 3.2 0.00 0.00 0.00 71 1011.0
20260505100057 11 301 0.0 3.2 0.00 0.00 0.00 72 1010.9
20260505095513 11 300 1.6 3.2 0.00 0.00 0.00 74 1010.9
20260505095016 10 276 0.0 1.6 0.00 0.00 0.00 78 1010.9
20260505094542 11 272 0.0 1.6 0.00 0.00 0.00 76 1010.8
20260505094015 11 271 0.0 3.2 0.00 0.00 0.00 74 1011.0
20260505093515 11 271 0.0 3.2 0.00 0.00 0.00 73 1011.0
20260505093049 12 245 0.0 0.0 0.00 0.00 0.00 71 1011.0
20260505092513 12 207 0.0 0.0 0.00 0.00 0.00 70 1011.0
20260505092016 12 139 0.0 0.0 0.00 0.00 0.00 70 1010.9
20260505091603 12 139 0.0 1.6 0.00 0.00 0.00 69 1010.8
20260505091015 12 117 0.0 1.6 0.00 0.00 0.00 68 1010.8
20260505090516 13 327 0.0 0.0 0.00 0.00 0.00 67 1010.7
20260505090104 13 327 0.0 0.0 0.00 0.00 0.00 67 1010.7
20260505085514 13 327 0.0 0.0 0.00 0.00 0.00 66 1010.7
20260505085017 13 327 0.0 0.0 0.00 0.00 0.00 66 1010.7
20260505084607 13 327 0.0 0.0 0.00 0.00 0.00 66 1010.6
20260505084012 13 327 0.0 0.0 0.00 0.00 0.00 66 1010.6
20260505083517 13 350 0.0 0.0 0.00 0.00 0.00 66 1010.7
20260505083104 13 98 0.0 0.0 0.00 0.00 0.00 67 1010.6
20260505082516 13 98 0.0 0.0 0.00 0.00 0.00 66 1010.6
20260505082016 13 98 0.0 0.0 0.00 0.00 0.00 67 1010.5
20260505081603 12 98 0.0 0.0 0.00 0.00 0.00 67 1010.4
20260505081015 12 98 0.0 0.0 0.00 0.00 0.00 69 1010.4
20260505080517 12 98 0.0 0.0 0.00 0.00 0.00 69 1010.4
20260505075518 12 98 0.0 1.6 0.00 0.00 0.00 69 1010.5
20260505075019 12 56 0.0 3.2 0.00 0.00 0.00 69 1010.5
20260505074552 12 49 0.0 3.2 0.00 0.00 0.00 69 1010.4
20260505074014 12 49 0.0 0.0 0.00 0.00 0.00 69 1010.5
20260505073518 12 47 0.0 1.6 0.00 0.00 0.00 69 1010.4
20260505073101 12 56 0.0 1.6 0.00 0.00 0.00 68 1010.3
20260505072515 12 333 0.0 8.0 0.00 0.00 0.00 68 1010.3
20260505072017 12 317 3.2 8.0 0.00 0.00 0.00 67 1010.3
20260505071554 13 323 3.2 8.0 0.00 0.00 0.00 66 1010.4
20260505071016 13 325 4.8 9.7 0.00 0.00 0.00 65 1010.3
20260505070518 13 324 4.8 9.7 0.00 0.00 0.00 64 1010.6
20260505070052 14 289 4.8 9.7 0.00 0.00 0.00 62 1010.6
20260505065516 14 317 4.8 9.7 0.00 0.00 0.00 61 1010.6
20260505065014 14 315 3.2 9.7 0.00 0.00 0.00 61 1010.6
20260505064555 15 311 3.2 6.4 0.00 0.00 0.00 60 1010.6
20260505064019 15 291 3.2 4.8 0.00 0.00 0.00 60 1010.4
20260505063516 15 300 0.0 1.6 0.00 0.00 0.00 59 1010.5
20260505063051 15 314 0.0 1.6 0.00 0.00 0.00 59 1010.5
20260505062517 15 348 0.0 0.0 0.00 0.00 0.00 59 1010.5
20260505062016 15 348 0.0 0.0 0.00 0.00 0.00 60 1010.3
20260505061611 15 348 0.0 0.0 0.00 0.00 0.00 60 1010.2
20260505061017 15 345 0.0 0.0 0.00 0.00 0.00 60 1010.3
20260505060517 15 333 0.0 0.0 0.00 0.00 0.00 60 1010.4
20260505060103 15 321 0.0 3.2 0.00 0.00 0.00 60 1010.5
20260505055516 15 313 0.0 3.2 0.00 0.00 0.00 60 1010.6
20260505055014 15 331 0.0 4.8 0.00 0.00 0.00 60 1010.6
20260505054554 15 331 1.6 4.8 0.00 0.00 0.00 61 1010.3
20260505054020 15 330 1.6 4.8 0.00 0.00 0.00 61 1010.4
20260505053515 15 330 0.0 3.2 0.00 0.00 0.00 62 1010.3
20260505053055 15 329 0.0 4.8 0.00 0.00 0.00 61 1010.3
20260505052515 15 331 0.0 9.7 0.00 0.00 0.00 61 1010.3
20260505052016 15 318 3.2 9.7 0.00 0.00 0.00 59 1010.5
20260505051548 15 317 0.0 4.8 0.00 0.00 0.00 58 1010.4
20260505051017 16 323 0.0 4.8 0.00 0.00 0.00 56 1010.4
20260505050518 16 309 0.0 3.2 0.00 0.00 0.00 55 1010.5